Погода в Темире

Погода в Темире : погода сейчас, прогноз погоды и архив. Всё, что Вы хотите узнать о погоде в Темире!

Хотите узнать прогноз погоды в Темире? Тогда Вам сюда: Погода в Темире

Поиск расширенной информации на нашем сайте:

Другие новости

Новости СМИ2

Главная страница сайта

Новости сайта

02.10.2013

Напоминаем, что на нашем новом сайте вы можете получить высокодетализированные прогнозы погоды по пунктам России, СНГ и мира (включающие важные для авиации метеовеличины, такие как направление и скорость ветра, видимость, явления погоды, количество и форма облачности, нижняя и верхняя граница облачности), а также ознакомиться с разнообразными материалами по авиационной метеорологии и подборкой полезных ссылок на эту тему.

Сайт Метеоцентр.Азия посвящён разработке технологий оптимизации авиаметеорологического обслуживания, включая проектирование и перспективное создание нескольких автоматизированных авиаметеорологических систем:
- система выпуска высокодетальных прогностических карт явлений погоды для нижнего воздушного пространства по России и ближнему зарубежью;
- система верификации прогнозов TAF (выпускаемых синоптиками официальных АМСГ РФ и ближнего зарубежья) и AUTOTAF (выпускаемых сайтом Метеоцентр.Азия) - выявление ошибок, онлайн-сопоставление с фактической погодой METAR, автоматическое внесение коррективов в прогнозы при резком отклонении фактической погоды от прогноза, подсчёт оправдываемости прогнозов по элементам и в целом;
- система обработки, анализа и отображения авиаметеорологической информации для применения провайдерами метеорологической информации.


Погода в Темире - сегодня

Время (UTC), дата Ветер
(°,м/с) 
Видим.   Явления Облачность Т
(°С)
Тd
(°С)
f(%) Тe
(°С)
Pmin
(гПа)
dP
(гПа)
Po
(мм)
O2
(г/м3)
Тmin Tmax R s Состояние
почвы
18 22.05.17 тихо ()   н/о  {дождь}  10/10 600 м кучево-дожд. 
[Cb cap]
+14.3 +13.4 94 +21  1000.4  0.2  730  277    +19.8     
21 22.05.17 230 (ЮЗ) н/о  {ливн. осадки}  6/6 600 м кучево-дожд. 
[Cb cap]
+14.1 +13.4 96 +22  999.6  -0.8  729  277           
00 23.05.17 270 (З) н/о  {ливн. осадки}  10/10 600 м кучево-дожд. 
[Cb cap]
+13.7 +13 96 +19  1000.5  0.8  730  277           
03 23.05.17 270 (З) 20000 м    8/8 600 м кучево-дожд. 
[Cb cap]
+13.1 +10.9 86 +15  1003.8  3.2  732  280         
06 23.05.17 270 (З) 20000 м    10/10 600 м кучево-дожд. 
[Cb cap]
+15 +10.7 75 +17  1006  2.3  734  278  +12.4       
09 23.05.17 260 (З) 20000 м    8/8 600 м кучево-дожд. 
[Cb cap]
+17.3 +11.7 70 +21  1006.9  1.1  735  276           
12 23.05.17 270 (З) 20000 м    6/6 600 м кучево-дожд. 
[Cb cap]
+17.2 +10.5 65 +19  1007.9  0.9  736  277           
15 23.05.17 250 (З) 20000 м  {ливн. осадки}  10/10 600 м кучево-дожд. 
[Cb cap]
+14.3 +11.9 85 +18  1009.7  1.5  737  280    +18.6  0.5     
18 23.05.17 250 (З) н/о  {ливн. осадки}  3/3 600 м кучево-дожд. 
[Cb cap]
+11.8 +10.7 93 +14  1011.6  1.7  738  283    +18.6  0.5     
21 23.05.17 320 (СЗ) н/о    ясно 
+7.8 +5.4 85 +8  1013.7  1.5  739  289           
00 24.05.17 280 (З) н/о    ясно 
+5.6 +3.2 85 +6  1015.5  1.6  740  292           
03 24.05.17 300 (СЗ) 20000 м    ясно 
+8.5 +3.9 73 +9  1017  1.7  742  289           
06 24.05.17 330 (СЗ) 20000 м    ясно 
+14.8 -0.4 35 +15  1017.8  1.4  743  284  +4.4         
09 24.05.17 330 (СЗ) 20000 м    ясно 
+16.1 -0.7 32 +17  1017.6  -0.1  743  283           
12 24.05.17 330 (СЗ) 20000 м    3/0 средняя 
[Ac lent]
+17.6 -0.1 30 +18  1017.5  0.1  743  281           
15 24.05.17 320 (СЗ) 20000 м    3/0 средняя 
[Ac lent]
+17.2 -0.5 30 +18  1017.5  -0.1  743  281    +18.3       
18 24.05.17 350 (С) н/о    ясно 
+10.8 +3.3 60 +12  1020.2  744  288    +18.3       
21 24.05.17 360 (С) н/о    ясно 
+9.2 +0.6 55 +10  1020.7  0.4  744  290           
00 25.05.17 340 (С) н/о    ясно 
+5.1 +1.6 78 +5  1021.2  0.1  744  294           
03 25.05.17 350 (С) 20000 м    3/0 верхняя 
[Ci fib]
+9.5 +1.6 58 +10  1021.6  0.8  745  290           
06 25.05.17 080 (В) 20000 м    5/0 верхняя 
[Ci fib]
+17 +0.5 33 +17  1021  0.1  745  283  +4.2         
09 25.05.17 090 (В) 20000 м    8/0 верхняя 
[Cs]
+19.8 +2.7 32 +21  1020.2  -0.5  745  279           
12 25.05.17 100 (В) 20000 м    8/0 верхняя 
[Cs]
+21.5 +3.8 31 +22  1018.5  -1.5  744  277           
15 25.05.17 090 (В) 20000 м    8/4 600 м кучево-дожд., средняя 
[Cb cap|Ac lent]
+19.3 +6.1 42 +20  1018.6  -0.1  744  279    +22.2       
18 25.05.17 090 (В) н/о    6/3 600 м кучево-дожд., средняя 
[Cb calv|Ac lent]
+15.1 +8.2 63 +16  1019.1  0.2  744  283    +22.2       
Время (UTC), дата Ветер
(°,м/с) 
Видим.   Явления Облачность Т
(°С)
Тd
(°С)
f(%) Тe
(°С)
Pmin
(гПа)
dP
(гПа)
Po
(мм)
O2
(г/м3)
Тmin Tmax R s Состояние
почвы

Для получения пояснительной информации подведите курсор к названию столбца.

ПОГОДА в Темире - архив

Всё, что Вы хотите узнать о погоде в Темире - удобно и подробно!

Выберите нужную дату (начиная с 1 января 2015* года) и нажмите кнопку "Найти".
Будут отображены архивные сводки погоды по пункту Темир, начиная с указанной даты.


Отображать данные в формате CSV (для использования в таблицах Excel)


Внимание! Наш архив погоды предназначен исключительно для личного некоммерческого использования в познавательных целях. Если Вам необходимы официальные справки о состоянии погоды (для производственных, юридических, коммерческих и т.п. целей), обращайтесь в органы Росгидромета.

*Примечание: данная дата относится к архиву по метеостанциям СССР (Россия, СНГ, Балтия).
Архив по метеостанциям Зарубежной Европы и Азии (кроме Китая) хранится 10 дней, по другим регионам земного шара (Китай, Африка, Америка, Австралия, Океания) - 1 день.

Темир - район местоположения метеостанции


Название, широта, долгота, высота метеостанции:
Темир 49.2°ш. 57.1°д. 234 м над ур. моря [Казахстан]

Дополнительная информация

В oтличие oт бoльшинства пoгoдных сайтoв мы публикуем пoдрoбную метеoинфoрмацию в детальнoм прoфессиoнальнoм фoрмате.

Характеристики температуры и влажнoсти вoздуха измеряются на высoте 2 м в тени вдали oт зданий и деревьев.
Скoрoсть ветра измеряется на высoте 10 м (на урoвне рoста челoвека скoрoсть ветра ниже в 1.5-2 раза). Если метеoстанция нахoдится в гoрoде или в лесу, тo скoрoсть ветра занижена на 2-4 м/с пo сравнению с oткрытым местoм. Скoрoсть ветра над акватoриями крупных рек и oзёр, а также на вершинах хoлмoв на 2-5 м/с выше, чем в oбычных услoвиях.
Атмoсфернoе давление в разных тoчках местнoсти мoжет значительнo oтличаться oт давления на метеoстанции, в зависимoсти oт услoвий рельефа (при пoдъёме на 10 м давление пoнижается примернo на 1 мм рт.ст.).